• In Russia
  • List of Countries
  • For 7 days
  • Water Temperature
  • Satellite Maps
  • Weather Map
  • Weather Widgets
  • user-avatar
    Login

    Hourly Weather Perth

    Today, 21 January, Saturday

    Time Temperature Precipitation Wind Pressure Humidity
    00:00 +17°C° 0 mm 3 mps 755 mmHg 85%
    01:00 +17°C° 0 mm 3 mps 755 mmHg 82%
    02:00 +16°C° 0 mm 3 mps 755 mmHg 79%
    03:00 +16°C° 0 mm 3 mps 754 mmHg 74%
    04:00 +16°C° 0 mm 3 mps 754 mmHg 69%
    05:00 +16°C° 0 mm 2 mps 754 mmHg 64%
    06:00 +20°C° 0 mm 2 mps 754 mmHg 55%
    07:00 +24°C° 0 mm 2 mps 754 mmHg 45%
    08:00 +27°C° 0 mm 2 mps 754 mmHg 36%
    09:00 +31°C° 0 mm 2 mps 754 mmHg 30%
    10:00 +35°C° 0 mm 3 mps 754 mmHg 24%
    11:00 +38°C° 0 mm 3 mps 753 mmHg 18%
    12:00 +40°C° 0 mm 4 mps 753 mmHg 17%
    13:00 +40°C° 0 mm 4 mps 752 mmHg 17%
    14:00 +40°C° 0 mm 5 mps 752 mmHg 16%
    15:00 +39°C° 0 mm 5 mps 751 mmHg 20%
    16:00 +36°C° 0 mm 6 mps 751 mmHg 24%
    17:00 +34°C° 0 mm 6 mps 751 mmHg 27%
    18:00 +30°C° 0 mm 6 mps 752 mmHg 36%
    19:00 +27°C° 0 mm 5 mps 752 mmHg 45%
    20:00 +23°C° 0 mm 5 mps 752 mmHg 54%
    21:00 +22°C° 0 mm 5 mps 753 mmHg 59%
    22:00 +21°C° 0 mm 4 mps 753 mmHg 63%
    23:00 +20°C° 0 mm 4 mps 754 mmHg 68%

    Tomorrow, 22 January, Sunday

    Time Temperature Precipitation Wind Pressure Humidity
    00:00 +19°C° 0 mm 4 mps 754 mmHg 71%
    01:00 +18°C° 0 mm 4 mps 753 mmHg 75%
    02:00 +18°C° 0 mm 4 mps 753 mmHg 78%
    03:00 +17°C° 0 mm 4 mps 754 mmHg 81%
    04:00 +17°C° 0 mm 4 mps 754 mmHg 85%
    05:00 +15°C° 0 mm 4 mps 754 mmHg 88%
    06:00 +18°C° 0 mm 4 mps 754 mmHg 78%
    07:00 +20°C° 0 mm 4 mps 755 mmHg 69%
    08:00 +22°C° 0 mm 4 mps 755 mmHg 59%
    09:00 +25°C° 0 mm 5 mps 755 mmHg 51%
    10:00 +27°C° 0 mm 5 mps 755 mmHg 44%
    11:00 +30°C° 0 mm 5 mps 755 mmHg 36%
    12:00 +30°C° 0 mm 6 mps 755 mmHg 37%
    13:00 +30°C° 0 mm 6 mps 755 mmHg 38%
    14:00 +30°C° 0 mm 6 mps 754 mmHg 38%
    15:00 +28°C° 0 mm 6 mps 754 mmHg 41%
    16:00 +27°C° 0 mm 7 mps 755 mmHg 43%
    17:00 +26°C° 0 mm 7 mps 755 mmHg 45%
    18:00 +23°C° 0 mm 6 mps 755 mmHg 54%
    19:00 +21°C° 0 mm 6 mps 756 mmHg 62%
    20:00 +17°C° 0 mm 5 mps 757 mmHg 70%
    21:00 +17°C° 0 mm 5 mps 757 mmHg 72%
    22:00 +16°C° 0 mm 5 mps 758 mmHg 74%
    23:00 +15°C° 0 mm 5 mps 758 mmHg 76%

    Day after tomorrow, 23 January, Monday

    Time Temperature Precipitation Wind Pressure Humidity
    00:00 +14°C° 0 mm 4 mps 758 mmHg 78%
    01:00 +14°C° 0 mm 4 mps 758 mmHg 79%
    02:00 +13°C° 0 mm 3 mps 758 mmHg 81%
    03:00 +12°C° 0 mm 3 mps 758 mmHg 83%
    04:00 +11°C° 0 mm 3 mps 759 mmHg 85%
    05:00 +11°C° 0 mm 3 mps 759 mmHg 87%
    06:00 +13°C° 0 mm 3 mps 759 mmHg 77%
    07:00 +17°C° 0 mm 3 mps 760 mmHg 66%
    08:00 +19°C° 0 mm 3 mps 760 mmHg 56%
    09:00 +22°C° 0 mm 3 mps 760 mmHg 48%
    10:00 +25°C° 0 mm 3 mps 760 mmHg 41%
    11:00 +27°C° 0 mm 3 mps 760 mmHg 34%
    12:00 +28°C° 0 mm 4 mps 760 mmHg 32%
    13:00 +29°C° 0 mm 4 mps 759 mmHg 30%
    14:00 +30°C° 0 mm 5 mps 759 mmHg 29%
    15:00 +30°C° 0 mm 6 mps 758 mmHg 31%
    16:00 +29°C° 0 mm 6 mps 758 mmHg 33%
    17:00 +28°C° 0 mm 6 mps 758 mmHg 35%
    18:00 +26°C° 0 mm 6 mps 759 mmHg 41%
    19:00 +23°C° 0 mm 5 mps 759 mmHg 47%
    20:00 +20°C° 0 mm 5 mps 760 mmHg 54%
    21:00 +20°C° 0 mm 5 mps 760 mmHg 54%
    22:00 +19°C° 0 mm 5 mps 761 mmHg 54%
    23:00 +17°C° 0 mm 5 mps 761 mmHg 54%

    24 January, Tuesday

    Time Temperature Precipitation Wind Pressure Humidity
    00:00 +17°C° 0 mm 5 mps 761 mmHg 54%
    01:00 +17°C° 0 mm 5 mps 761 mmHg 55%
    02:00 +19°C° 0 mm 5 mps 760 mmHg 55%
    03:00 +17°C° 0 mm 5 mps 760 mmHg 58%
    04:00 +17°C° 0 mm 5 mps 761 mmHg 60%
    05:00 +16°C° 0 mm 5 mps 761 mmHg 62%
    06:00 +19°C° 0 mm 5 mps 761 mmHg 58%
    07:00 +20°C° 0 mm 5 mps 761 mmHg 53%
    08:00 +22°C° 0 mm 5 mps 762 mmHg 48%
    09:00 +26°C° 0 mm 4 mps 761 mmHg 41%
    10:00 +30°C° 0 mm 3 mps 761 mmHg 33%
    11:00 +34°C° 0 mm 3 mps 761 mmHg 26%
    12:00 +36°C° 0 mm 3 mps 760 mmHg 22%
    13:00 +38°C° 0 mm 3 mps 759 mmHg 18%
    14:00 +40°C° 0 mm 3 mps 758 mmHg 15%
    15:00 +40°C° 0 mm 4 mps 758 mmHg 16%
    16:00 +39°C° 0 mm 5 mps 758 mmHg 18%
    17:00 +37°C° 0 mm 5 mps 758 mmHg 19%
    18:00 +34°C° 0 mm 5 mps 758 mmHg 25%
    19:00 +30°C° 0 mm 5 mps 759 mmHg 31%
    20:00 +27°C° 0 mm 5 mps 759 mmHg 37%
    21:00 +26°C° 0 mm 5 mps 759 mmHg 39%
    22:00 +25°C° 0 mm 4 mps 760 mmHg 42%
    23:00 +23°C° 0 mm 4 mps 760 mmHg 44%

    25 January, Wednesday

    Time Temperature Precipitation Wind Pressure Humidity
    00:00 +23°C° 0 mm 4 mps 760 mmHg 43%
    01:00 +23°C° 0 mm 4 mps 760 mmHg 41%
    02:00 +22°C° 0 mm 3 mps 759 mmHg 40%
    03:00 +22°C° 0 mm 3 mps 759 mmHg 41%
    04:00 +22°C° 0 mm 3 mps 760 mmHg 41%
    05:00 +22°C° 0 mm 3 mps 760 mmHg 42%
    06:00 +26°C° 0 mm 3 mps 760 mmHg 39%
    07:00 +30°C° 0 mm 3 mps 761 mmHg 35%
    08:00 +34°C° 0 mm 3 mps 761 mmHg 32%
    09:00 +36°C° 0 mm 3 mps 761 mmHg 28%
    10:00 +38°C° 0 mm 3 mps 760 mmHg 24%
    11:00 +42°C° 0 mm 3 mps 760 mmHg 20%
    12:00 +43°C° 0 mm 4 mps 760 mmHg 19%
    13:00 +44°C° 0 mm 4 mps 759 mmHg 17%
    14:00 +45°C° 0 mm 4 mps 759 mmHg 16%
    15:00 +44°C° 0 mm 4 mps 758 mmHg 18%
    16:00 +43°C° 0 mm 4 mps 758 mmHg 19%
    17:00 +41°C° 0 mm 5 mps 758 mmHg 21%
    18:00 +37°C° 0 mm 4 mps 758 mmHg 28%
    19:00 +34°C° 0 mm 4 mps 759 mmHg 36%
    20:00 +30°C° 0 mm 3 mps 759 mmHg 43%
    21:00 +29°C° 0 mm 3 mps 759 mmHg 45%
    22:00 +29°C° 0 mm 3 mps 759 mmHg 47%
    23:00 +28°C° 0 mm 3 mps 760 mmHg 49%

    26 January, Thursday

    Time Temperature Precipitation Wind Pressure Humidity
    00:00 +28°C° 0 mm 3 mps 759 mmHg 48%
    01:00 +28°C° 0 mm 3 mps 759 mmHg 47%
    02:00 +28°C° 0 mm 3 mps 759 mmHg 46%
    03:00 +27°C° 0 mm 3 mps 759 mmHg 42%
    04:00 +27°C° 0 mm 2 mps 759 mmHg 39%
    05:00 +26°C° 0 mm 2 mps 759 mmHg 36%
    06:00 +28°C° 0 mm 3 mps 759 mmHg 30%
    07:00 +31°C° 0 mm 3 mps 759 mmHg 24%
    08:00 +35°C° 0 mm 3 mps 760 mmHg 18%
    09:00 +37°C° 0 mm 3 mps 759 mmHg 16%
    10:00 +40°C° 0 mm 3 mps 759 mmHg 14%
    11:00 +44°C° 0 mm 3 mps 758 mmHg 13%
    12:00 +44°C° 0 mm 3 mps 758 mmHg 13%
    13:00 +45°C° 0 mm 4 mps 757 mmHg 13%
    14:00 +46°C° 0 mm 5 mps 757 mmHg 13%
    15:00 +45°C° 0 mm 5 mps 756 mmHg 16%
    16:00 +42°C° 0 mm 5 mps 756 mmHg 20%
    17:00 +41°C° 0 mm 5 mps 756 mmHg 24%
    18:00 +36°C° 0 mm 5 mps 756 mmHg 32%
    19:00 +33°C° 0 mm 4 mps 757 mmHg 40%
    20:00 +29°C° 0 mm 3 mps 757 mmHg 48%
    21:00 +28°C° 0 mm 3 mps 757 mmHg 49%
    22:00 +27°C° 0 mm 4 mps 757 mmHg 51%
    23:00 +27°C° 0 mm 4 mps 757 mmHg 53%
    Show more